Stündliche Wetter Holopovo

Heute, 16 Juni, Mittwoch

Zeit Temperatur Niederschläge Wind Luftdruck Luftfeuchtigkeit
00:00 +15°C° 0 mm 2 m/S 739 mmHg 91%
01:00 +14°C° 0 mm 2 m/S 739 mmHg 92%
02:00 +14°C° 0 mm 2 m/S 739 mmHg 94%
03:00 +14°C° 0 mm 2 m/S 739 mmHg 93%
04:00 +14°C° 0 mm 2 m/S 739 mmHg 93%
05:00 +14°C° 0 mm 2 m/S 739 mmHg 93%
06:00 +16°C° 0 mm 3 m/S 740 mmHg 88%
07:00 +17°C° 0 mm 3 m/S 740 mmHg 83%
08:00 +18°C° 0 mm 3 m/S 740 mmHg 78%
09:00 +20°C° 0 mm 3 m/S 741 mmHg 70%
10:00 +21°C° 0 mm 4 m/S 741 mmHg 61%
11:00 +22°C° 0 mm 4 m/S 741 mmHg 52%
12:00 +22°C° 0 mm 4 m/S 741 mmHg 50%
13:00 +23°C° 0 mm 4 m/S 742 mmHg 47%
14:00 +23°C° 0 mm 4 m/S 742 mmHg 45%
15:00 +24°C° 0 mm 3 m/S 742 mmHg 49%
16:00 +22°C° 0 mm 3 m/S 742 mmHg 53%
17:00 +22°C° 0 mm 3 m/S 742 mmHg 57%
18:00 +20°C° 0 mm 2 m/S 742 mmHg 62%
19:00 +18°C° 0 mm 2 m/S 743 mmHg 67%
20:00 +16°C° 0 mm 1 m/S 743 mmHg 72%
21:00 +15°C° 0 mm 1 m/S 743 mmHg 73%
22:00 +14°C° 0 mm 1 m/S 744 mmHg 74%
23:00 +13°C° 0 mm 2 m/S 744 mmHg 76%

Morgen, 17 Juni, Donnerstag

Zeit Temperatur Niederschläge Wind Luftdruck Luftfeuchtigkeit
00:00 +13°C° 0 mm 2 m/S 745 mmHg 76%
01:00 +12°C° 0 mm 2 m/S 745 mmHg 76%
02:00 +12°C° 0 mm 2 m/S 746 mmHg 77%
03:00 +12°C° 0 mm 2 m/S 746 mmHg 76%
04:00 +13°C° 0 mm 1 m/S 746 mmHg 75%
05:00 +13°C° 0 mm 1 m/S 747 mmHg 75%
06:00 +15°C° 0 mm 1 m/S 747 mmHg 67%
07:00 +19°C° 0 mm 1 m/S 747 mmHg 60%
08:00 +21°C° 0 mm 1 m/S 748 mmHg 53%
09:00 +22°C° 0 mm 1 m/S 748 mmHg 49%
10:00 +23°C° 0 mm 2 m/S 748 mmHg 46%
11:00 +24°C° 0 mm 2 m/S 748 mmHg 42%
12:00 +24°C° 0 mm 2 m/S 748 mmHg 42%
13:00 +25°C° 0 mm 2 m/S 748 mmHg 42%
14:00 +25°C° 0 mm 2 m/S 748 mmHg 42%
15:00 +25°C° 0 mm 2 m/S 748 mmHg 45%
16:00 +24°C° 0 mm 2 m/S 748 mmHg 49%
17:00 +24°C° 0 mm 1 m/S 749 mmHg 53%
18:00 +22°C° 0 mm 1 m/S 749 mmHg 59%
19:00 +20°C° 0 mm 1 m/S 749 mmHg 66%
20:00 +18°C° 0 mm 1 m/S 749 mmHg 72%
21:00 +16°C° 0 mm 1 m/S 749 mmHg 72%
22:00 +15°C° 0 mm 1 m/S 749 mmHg 71%
23:00 +15°C° 0 mm 1 m/S 749 mmHg 70%

übermorgen, 18 Juni, Freitag

Zeit Temperatur Niederschläge Wind Luftdruck Luftfeuchtigkeit
00:00 +14°C° 0 mm 1 m/S 750 mmHg 72%
01:00 +14°C° 0 mm 1 m/S 750 mmHg 74%
02:00 +13°C° 0 mm 1 m/S 750 mmHg 77%
03:00 +14°C° 0 mm 1 m/S 750 mmHg 77%
04:00 +15°C° 0 mm 1 m/S 751 mmHg 78%
05:00 +15°C° 0 mm 1 m/S 751 mmHg 79%
06:00 +18°C° 0 mm 1 m/S 751 mmHg 72%
07:00 +20°C° 0 mm 1 m/S 751 mmHg 65%
08:00 +22°C° 0 mm 1 m/S 751 mmHg 59%
09:00 +23°C° 0 mm 1 m/S 751 mmHg 54%
10:00 +24°C° 0 mm 2 m/S 751 mmHg 50%
11:00 +26°C° 0 mm 2 m/S 751 mmHg 46%
12:00 +26°C° 0 mm 2 m/S 751 mmHg 45%
13:00 +26°C° 0 mm 2 m/S 751 mmHg 44%
14:00 +27°C° 0 mm 2 m/S 751 mmHg 43%
15:00 +26°C° 0 mm 2 m/S 750 mmHg 48%
16:00 +26°C° 0 mm 2 m/S 750 mmHg 52%
17:00 +26°C° 0 mm 2 m/S 750 mmHg 56%
18:00 +24°C° 0 mm 2 m/S 750 mmHg 64%
19:00 +21°C° 0 mm 2 m/S 750 mmHg 72%
20:00 +18°C° 0 mm 2 m/S 750 mmHg 80%
21:00 +18°C° 0 mm 2 m/S 750 mmHg 83%
22:00 +17°C° 0 mm 2 m/S 750 mmHg 86%
23:00 +16°C° 0 mm 2 m/S 751 mmHg 88%

19 Juni, Samstag

Zeit Temperatur Niederschläge Wind Luftdruck Luftfeuchtigkeit
00:00 +15°C° 0 mm 2 m/S 751 mmHg 90%
01:00 +15°C° 0 mm 2 m/S 751 mmHg 92%
02:00 +14°C° 0 mm 2 m/S 751 mmHg 94%
03:00 +15°C° 0 mm 2 m/S 751 mmHg 91%
04:00 +15°C° 0 mm 2 m/S 751 mmHg 89%
05:00 +16°C° 0 mm 2 m/S 751 mmHg 87%
06:00 +18°C° 0 mm 2 m/S 751 mmHg 80%
07:00 +20°C° 0 mm 2 m/S 751 mmHg 73%
08:00 +23°C° 0 mm 2 m/S 751 mmHg 66%
09:00 +24°C° 0 mm 2 m/S 751 mmHg 61%
10:00 +25°C° 0 mm 2 m/S 751 mmHg 55%
11:00 +26°C° 0 mm 2 m/S 751 mmHg 50%
12:00 +26°C° 0 mm 2 m/S 751 mmHg 48%
13:00 +27°C° 0 mm 2 m/S 750 mmHg 46%
14:00 +28°C° 0 mm 2 m/S 750 mmHg 44%
15:00 +27°C° 0 mm 2 m/S 750 mmHg 47%
16:00 +27°C° 0 mm 2 m/S 750 mmHg 51%
17:00 +27°C° 0 mm 2 m/S 749 mmHg 55%
18:00 +25°C° 0 mm 2 m/S 749 mmHg 63%
19:00 +21°C° 0 mm 2 m/S 749 mmHg 72%
20:00 +19°C° 0 mm 2 m/S 749 mmHg 80%
21:00 +18°C° 0 mm 2 m/S 749 mmHg 83%
22:00 +17°C° 0 mm 2 m/S 750 mmHg 86%
23:00 +16°C° 0 mm 2 m/S 750 mmHg 89%

20 Juni, Sonntag

Zeit Temperatur Niederschläge Wind Luftdruck Luftfeuchtigkeit
00:00 +16°C° 0 mm 2 m/S 750 mmHg 90%
01:00 +15°C° 0 mm 2 m/S 750 mmHg 92%
02:00 +15°C° 0 mm 2 m/S 750 mmHg 94%
03:00 +16°C° 0 mm 2 m/S 750 mmHg 92%
04:00 +16°C° 0 mm 1 m/S 750 mmHg 91%
05:00 +18°C° 0 mm 1 m/S 750 mmHg 89%
06:00 +20°C° 0 mm 1 m/S 750 mmHg 81%
07:00 +21°C° 0 mm 1 m/S 750 mmHg 74%
08:00 +23°C° 0 mm 1 m/S 750 mmHg 67%
09:00 +24°C° 0 mm 1 m/S 750 mmHg 61%
10:00 +26°C° 0 mm 2 m/S 749 mmHg 56%
11:00 +27°C° 0 mm 2 m/S 749 mmHg 51%
12:00 +27°C° 0 mm 2 m/S 749 mmHg 48%
13:00 +28°C° 0 mm 2 m/S 749 mmHg 46%
14:00 +28°C° 0 mm 2 m/S 748 mmHg 44%
15:00 +28°C° 0 mm 2 m/S 748 mmHg 48%
16:00 +28°C° 0 mm 2 m/S 748 mmHg 52%
17:00 +27°C° 0 mm 2 m/S 748 mmHg 56%
18:00 +25°C° 0 mm 2 m/S 748 mmHg 64%
19:00 +23°C° 0 mm 2 m/S 748 mmHg 72%
20:00 +20°C° 0 mm 2 m/S 747 mmHg 81%
21:00 +19°C° 0 mm 2 m/S 747 mmHg 84%
22:00 +18°C° 0 mm 2 m/S 747 mmHg 87%
23:00 +17°C° 0 mm 2 m/S 747 mmHg 90%

21 Juni, Montag

Zeit Temperatur Niederschläge Wind Luftdruck Luftfeuchtigkeit
00:00 +17°C° 0 mm 2 m/S 747 mmHg 92%
01:00 +16°C° 0 mm 2 m/S 747 mmHg 93%
02:00 +16°C° 0 mm 2 m/S 748 mmHg 94%
03:00 +18°C° 0 mm 1 m/S 747 mmHg 93%
04:00 +18°C° 0 mm 1 m/S 747 mmHg 91%
05:00 +19°C° 0 mm 1 m/S 747 mmHg 89%
06:00 +21°C° 0 mm 1 m/S 747 mmHg 82%
07:00 +22°C° 0 mm 1 m/S 747 mmHg 75%
08:00 +24°C° 0 mm 1 m/S 747 mmHg 68%
09:00 +25°C° 0 mm 1 m/S 747 mmHg 62%
10:00 +27°C° 0 mm 1 m/S 747 mmHg 57%
11:00 +28°C° 0 mm 1 m/S 747 mmHg 51%
12:00 +28°C° 0 mm 1 m/S 747 mmHg 49%
13:00 +29°C° 0 mm 1 m/S 747 mmHg 46%
14:00 +29°C° 0 mm 1 m/S 746 mmHg 44%
15:00 +29°C° 0 mm 1 m/S 746 mmHg 47%
16:00 +29°C° 0 mm 1 m/S 746 mmHg 50%
17:00 +29°C° 0 mm 1 m/S 746 mmHg 53%
18:00 +27°C° 0 mm 1 m/S 746 mmHg 62%
19:00 +24°C° 0 mm 1 m/S 746 mmHg 70%
20:00 +22°C° 0 mm 1 m/S 746 mmHg 79%
21:00 +21°C° 0 mm 1 m/S 746 mmHg 81%
22:00 +20°C° 0 mm 1 m/S 746 mmHg 84%
23:00 +20°C° 0 mm 1 m/S 746 mmHg 87%
Mehr zeigen

Wir brauchen deine Erlaubnis

Meteoprog und unser Service Anbieter werden persönliche Daten aufbewahren, so wie Cookies, Geräte Bezeichnung oder ähnliche Technologien von deinem Gerät und Prozess, so wie Persönliche Daten Inhalte und Werbungen, genauso wie social Media und den Verkehr zu analysieren.

  • Aufbewahrung und/oder Zugang zu deiner Geräte Informationen.

    Cookies, Geräte Bezeichnung oder andere Informationen, können aufbewahrt oder Zugang zu deinem Gerät erhalten, für den Grund, der oben angegeben wird.

  • Personalisierte Werbung und Inhalte, Messungen, Einblick in das Publikum und Produkt Entwicklung.

    Werbungen und Inhalte können personalisiert werden, basierend auf ein Profil. Mehr Daten können besser personalisierte Werbungen und Inhalte hinzufügen. Werbung und Inhalte können gezeigt und gemessen werden. Einblicke über das Publikum, welche die Werbung gesehen haben und den Inhalt, können abgeleitet werden. So wie Daten können genutzt werden, um es zu verbessern oder die Benutzer Erfahrung zu verbessern das System und die Software.

Wenn du “Ich stimme zu” klickst, erlaubst du uns, die Cookies zu benutzen die Geräte Bezeichnung, den Web oder ähnliche Technologien zu benutzen. Deine Settings, können in deinem Gerät bei deinem Browser geändert werden.

Für den bestimmten Zweck, berechtigten Interessen beruhen darauf, mehr als auf den Inhalt. Du kannst mehr darüber in unseren Privaten und Cookie Politik lesen.